Valparaiso, FL

4:44 PM CDT on July 27, 2017 (GMT -0500)
Eglin Air Force Base

Weather History for KVPS - January, 2012

Change the Weather History Date:

Monday, January 30, 2012

  Actual Average Record
Temperature  
Mean Temperature 46 °F -  
Max Temperature 63 °F 63 °F 79 °F (1972)
Min Temperature 30 °F 37 °F 10 °F (1966)
Degree Days  
Heating Degree Days 18    
Moisture  
Dew Point 27 °F    
Average Humidity 52    
Maximum Humidity 79    
Minimum Humidity 18    
Precipitation  
Precipitation 0.00 in - - ()
Sea Level Pressure  
Sea Level Pressure 30.40 in    
Wind  
Wind Speed 4 mph (NE)    
Max Wind Speed 9 mph    
Max Gust Speed -    
Visibility 10 miles    
Events      
Averages and records for this station are not official NWS values.
T = Trace of Precipitation, MM = Missing Value Source: NWS Daily Summary

Daily Weather History Graph

Daily Weather History Graph

Search for Another Location

Airport or City:

Trip Planner

Search our weather history database for the weather conditions in past years. The results will help you decide how hot, cold, wet, or windy it might be!

Date:

Astronomy

Jan. 30, 2012 Rise Set
Actual Time 6:38 AM CST 5:20 PM CST
Civil Twilight 6:13 AM CST 5:45 PM CST
Nautical Twilight 5:44 AM CST 6:14 PM CST
Astronomical Twilight 5:15 AM CST 6:43 PM CST
Moon 10:36 AM CST (1/30) No Moon Set
Length of Visible Light 11h 32m
Length of Day
10h 41m
Waxing Crescent, 46% of the Moon is Illuminated
Jan 30
Waxing Crescent
Jan 30
First Quarter
Feb 7
Full
Feb 14
Last Quarter
Feb 21
New

Hourly Weather History & Observations

Time (CST) Temp. Windchill Dew Point Humidity Pressure Visibility Wind Dir Wind Speed Gust Speed Precip Events Conditions
12:55 AM 35.8 °F 31.9 °F 26.4 °F 69% 30.39 in 10.0 mi NNE 4.6 mph - N/A   Partly Cloudy
1:58 AM 33.4 °F - 26.6 °F 76% 30.38 in 10.0 mi NNW 2.3 mph - N/A   Clear
2:55 AM 33.6 °F 30.6 °F 24.3 °F 69% 30.38 in 10.0 mi NNW 3.5 mph - N/A   Clear
3:55 AM 33.3 °F - 23.5 °F 68% 30.40 in 10.0 mi North 2.3 mph - N/A   Clear
4:55 AM 30.7 °F - 24.8 °F 79% 30.40 in 10.0 mi Calm Calm - N/A   Clear
5:55 AM 30.9 °F 24.3 °F 24.8 °F 78% 30.40 in 10.0 mi North 6.9 mph - N/A   Clear
6:05 AM 32.0 °F 28.7 °F 23.0 °F 69% 30.39 in 10.0 mi NNW 3.5 mph - N/A   Partly Cloudy
6:56 AM 30.6 °F - 23.5 °F 75% 30.42 in 10.0 mi NNW 2.3 mph - N/A   Scattered Clouds
7:55 AM 40.3 °F - 23.5 °F 51% 30.46 in 10.0 mi North 2.3 mph - N/A   Scattered Clouds
8:57 AM 50.9 °F - 21.0 °F 31% 30.45 in 10.0 mi NE 5.8 mph - N/A   Scattered Clouds
9:55 AM 55.6 °F - 20.7 °F 26% 30.47 in 10.0 mi ENE 6.9 mph - N/A   Mostly Cloudy
10:55 AM 60.1 °F - 17.2 °F 19% 30.47 in 10.0 mi Variable 6.9 mph - N/A   Mostly Cloudy
11:57 AM 62.6 °F - 17.6 °F 18% 30.44 in 10.0 mi East 8.1 mph - N/A   Mostly Cloudy
12:55 PM 63.5 °F - 19.9 °F 19% 30.40 in 10.0 mi SE 6.9 mph - N/A   Mostly Cloudy
1:55 PM 63.7 °F - 22.1 °F 20% 30.39 in 10.0 mi SSE 9.2 mph - N/A   Mostly Cloudy
2:55 PM 62.6 °F - 23.4 °F 22% 30.37 in 10.0 mi SE 6.9 mph - N/A   Mostly Cloudy
3:55 PM 62.6 °F - 26.4 °F 25% 30.35 in 10.0 mi South 4.6 mph - N/A   Mostly Cloudy
4:55 PM 60.1 °F - 35.1 °F 39% 30.36 in 10.0 mi Calm Calm - N/A   Mostly Cloudy
5:55 PM 54.1 °F - 36.9 °F 52% 30.37 in 10.0 mi Calm Calm - N/A   Scattered Clouds
6:55 PM 48.2 °F - 38.3 °F 69% 30.37 in 10.0 mi Calm Calm - N/A   Scattered Clouds
7:55 PM 46.9 °F - 36.7 °F 68% 30.36 in 10.0 mi NE 3.5 mph - N/A   Scattered Clouds
8:55 PM 45.9 °F 43.6 °F 36.3 °F 69% 30.37 in 10.0 mi NE 4.6 mph - N/A   Scattered Clouds
9:55 PM 43.9 °F 40.5 °F 36.1 °F 74% 30.38 in 10.0 mi NE 5.8 mph - N/A   Partly Cloudy
10:55 PM 46.2 °F 43.3 °F 33.4 °F 61% 30.37 in 10.0 mi ENE 5.8 mph - N/A   Scattered Clouds
11:55 PM 50.2 °F - 33.3 °F 52% 30.35 in 10.0 mi East 5.8 mph - N/A   Mostly Cloudy